| time (UTC) | temp F | wind direction | speed MPH | gust MPH | rain 1hr in | rain 24hr in | rain mn in | humidity % | barometer mb |
| 20260507141558 | 80 | 0.0 | 0.0 | 0.00 | 0.00 | 0.00 | 51 | 1017.0 | |
| 20260507141056 | 80 | 0.0 | 0.0 | 0.00 | 0.00 | 0.00 | 54 | 1017.0 | |
| 20260507140555 | 79 | 0.0 | 0.0 | 0.00 | 0.00 | 0.00 | 57 | 1017.0 | |
| 20260507140052 | 80 | 0.0 | 0.0 | 0.00 | 0.00 | 0.00 | 57 | 1017.2 | |
| 20260507135550 | 79 | 0.0 | 0.0 | 0.00 | 0.00 | 0.00 | 62 | 1017.2 | |
| 20260507135048 | 79 | 0.0 | 0.0 | 0.00 | 0.00 | 0.00 | 60 | 1017.2 | |
| 20260507134547 | 79 | 0.0 | 0.0 | 0.00 | 0.00 | 0.00 | 60 | 1017.3 | |
| 20260507134045 | 79 | 0.0 | 0.0 | 0.00 | 0.00 | 0.00 | 61 | 1017.3 | |
| 20260507133543 | 77 | 0.0 | 0.0 | 0.00 | 0.00 | 0.00 | 66 | 1017.3 | |
| 20260507133042 | 75 | 0.0 | 0.0 | 0.00 | 0.00 | 0.00 | 70 | 1017.4 | |
| 20260507132540 | 74 | 0.0 | 0.0 | 0.00 | 0.00 | 0.00 | 72 | 1017.6 | |
| 20260507132038 | 74 | 0.0 | 0.0 | 0.00 | 0.00 | 0.00 | 70 | 1017.6 | |
| 20260507131534 | 76 | 0.0 | 0.0 | 0.00 | 0.00 | 0.00 | 66 | 1017.6 | |
| 20260507131031 | 75 | 0.0 | 0.0 | 0.00 | 0.00 | 0.00 | 68 | 1017.7 | |
| 20260507130528 | 75 | 0.0 | 0.0 | 0.00 | 0.00 | 0.00 | 67 | 1017.7 | |
| 20260507130026 | 74 | 0.0 | 0.0 | 0.00 | 0.00 | 0.00 | 69 | 1017.7 | |
| 20260507125523 | 74 | 0.0 | 0.0 | 0.00 | 0.00 | 0.00 | 69 | 1017.8 | |
| 20260507125022 | 76 | 0.0 | 0.0 | 0.00 | 0.00 | 0.00 | 64 | 1017.9 | |
| 20260507124520 | 78 | 0.0 | 0.0 | 0.00 | 0.00 | 0.00 | 62 | 1017.9 | |
| 20260507124016 | 76 | 0.0 | 0.0 | 0.00 | 0.00 | 0.00 | 63 | 1018.0 | |
| 20260507123514 | 77 | 0.0 | 0.0 | 0.00 | 0.00 | 0.00 | 64 | 1017.9 | |
| 20260507123012 | 76 | 0.0 | 0.0 | 0.00 | 0.00 | 0.00 | 64 | 1017.9 | |
| 20260507122509 | 77 | 0.0 | 0.0 | 0.00 | 0.00 | 0.00 | 65 | 1017.9 | |
| 20260507122007 | 75 | 0.0 | 0.0 | 0.00 | 0.00 | 0.00 | 68 | 1018.0 | |
| 20260507121504 | 75 | 0.0 | 0.0 | 0.00 | 0.00 | 0.00 | 69 | 1018.0 | |
| 20260507121003 | 75 | 0.0 | 0.0 | 0.00 | 0.00 | 0.00 | 70 | 1018.0 | |
| 20260507120500 | 71 | 0.0 | 0.0 | 0.00 | 0.00 | 0.00 | 80 | 1018.0 | |
| 20260507115957 | 68 | 0.0 | 0.0 | 0.00 | 0.00 | 0.00 | 88 | 1018.0 | |
| 20260507115454 | 68 | 0.0 | 0.0 | 0.00 | 0.00 | 0.00 | 85 | 1018.1 | |
| 20260507114951 | 69 | 0.0 | 0.0 | 0.00 | 0.00 | 0.00 | 84 | 1018.1 | |
| 20260507114448 | 69 | 0.0 | 0.0 | 0.00 | 0.00 | 0.00 | 85 | 1018.2 | |
| 20260507113946 | 70 | 0.0 | 0.0 | 0.00 | 0.00 | 0.00 | 81 | 1018.2 | |
| 20260507113444 | 71 | 0.0 | 0.0 | 0.00 | 0.00 | 0.00 | 78 | 1018.2 | |
| 20260507112942 | 72 | 0.0 | 0.0 | 0.00 | 0.00 | 0.00 | 76 | 1018.2 | |
| 20260507112440 | 75 | 0.0 | 0.0 | 0.00 | 0.00 | 0.00 | 69 | 1018.3 | |
| 20260507111936 | 75 | 0.0 | 0.0 | 0.00 | 0.00 | 0.00 | 68 | 1018.4 | |
| 20260507111433 | 75 | 0.0 | 0.0 | 0.00 | 0.00 | 0.00 | 69 | 1018.5 | |
| 20260507110931 | 73 | 0.0 | 0.0 | 0.00 | 0.00 | 0.00 | 75 | 1018.3 | |
| 20260507110429 | 72 | 0.0 | 0.0 | 0.00 | 0.00 | 0.00 | 76 | 1018.3 | |
| 20260507105928 | 71 | 0.0 | 0.0 | 0.00 | 0.00 | 0.00 | 81 | 1018.4 | |
| 20260507105426 | 69 | 0.0 | 0.0 | 0.00 | 0.00 | 0.00 | 99 | 1018.3 | |
| 20260507104924 | 65 | 0.0 | 0.0 | 0.00 | 0.00 | 0.00 | 99 | 1018.3 | |
| 20260507104422 | 61 | 0.0 | 0.0 | 0.00 | 0.00 | 0.00 | 99 | 1018.2 | |
| 20260507103920 | 58 | 0.0 | 0.0 | 0.00 | 0.00 | 0.00 | 99 | 1018.2 | |
| 20260507103418 | 58 | 0.0 | 0.0 | 0.00 | 0.00 | 0.00 | 99 | 1018.2 | |
| 20260507102917 | 57 | 0.0 | 0.0 | 0.00 | 0.00 | 0.00 | 99 | 1018.2 | |
| 20260507102414 | 57 | 0.0 | 0.0 | 0.00 | 0.00 | 0.00 | 99 | 1018.1 | |
| 20260507101912 | 56 | 0.0 | 0.0 | 0.00 | 0.00 | 0.00 | 99 | 1018.1 | |
| 20260507101411 | 56 | 0.0 | 0.0 | 0.00 | 0.00 | 0.00 | 99 | 1018.0 | |
| 20260507100909 | 55 | 0.0 | 0.0 | 0.00 | 0.00 | 0.00 | 99 | 1018.1 | |
| 20260507100407 | 55 | 0.0 | 0.0 | 0.00 | 0.00 | 0.00 | 99 | 1018.0 | |
| 20260507095904 | 55 | 0.0 | 0.0 | 0.00 | 0.00 | 0.00 | 99 | 1018.0 | |
| 20260507095402 | 55 | 0.0 | 0.0 | 0.00 | 0.00 | 0.00 | 99 | 1017.9 | |
| 20260507094900 | 55 | 0.0 | 0.0 | 0.00 | 0.00 | 0.00 | 99 | 1017.9 | |
| 20260507094358 | 55 | 0.0 | 0.0 | 0.00 | 0.00 | 0.00 | 99 | 1017.9 | |
| 20260507093856 | 55 | 0.0 | 0.0 | 0.00 | 0.00 | 0.00 | 99 | 1017.9 | |
| 20260507093355 | 55 | 0.0 | 0.0 | 0.00 | 0.00 | 0.00 | 99 | 1017.8 | |
| 20260507092853 | 55 | 0.0 | 0.0 | 0.00 | 0.00 | 0.00 | 99 | 1017.8 | |
| 20260507092351 | 55 | 0.0 | 0.0 | 0.00 | 0.00 | 0.00 | 99 | 1017.8 | |
| 20260507091849 | 55 | 0.0 | 0.0 | 0.00 | 0.00 | 0.00 | 99 | 1017.8 | |
| 20260507091348 | 55 | 0.0 | 0.0 | 0.00 | 0.00 | 0.00 | 99 | 1017.8 | |
| 20260507090846 | 55 | 0.0 | 0.0 | 0.00 | 0.00 | 0.00 | 99 | 1017.8 | |
| 20260507090344 | 55 | 0.0 | 0.0 | 0.00 | 0.00 | 0.00 | 99 | 1017.8 | |
| 20260507085843 | 55 | 0.0 | 0.0 | 0.00 | 0.00 | 0.00 | 99 | 1017.7 | |
| 20260507085341 | 55 | 0.0 | 0.0 | 0.00 | 0.00 | 0.00 | 99 | 1017.7 | |
| 20260507084839 | 55 | 0.0 | 0.0 | 0.00 | 0.00 | 0.00 | 99 | 1017.7 | |
| 20260507084337 | 55 | 0.0 | 0.0 | 0.00 | 0.00 | 0.00 | 99 | 1017.6 | |
| 20260507083835 | 55 | 0.0 | 0.0 | 0.00 | 0.00 | 0.00 | 99 | 1017.6 | |
| 20260507083333 | 55 | 0.0 | 0.0 | 0.00 | 0.00 | 0.00 | 99 | 1017.6 | |
| 20260507082831 | 55 | 0.0 | 0.0 | 0.00 | 0.00 | 0.00 | 99 | 1017.6 | |
| 20260507082330 | 55 | 0.0 | 0.0 | 0.00 | 0.00 | 0.00 | 99 | 1017.6 | |
| 20260507081828 | 55 | 0.0 | 0.0 | 0.00 | 0.00 | 0.00 | 99 | 1017.7 | |
| 20260507081326 | 55 | 0.0 | 0.0 | 0.00 | 0.00 | 0.00 | 99 | 1017.7 | |
| 20260507080825 | 55 | 0.0 | 0.0 | 0.00 | 0.00 | 0.00 | 99 | 1017.8 | |
| 20260507080323 | 55 | 0.0 | 0.0 | 0.00 | 0.00 | 0.00 | 99 | 1017.8 | |
| 20260507075821 | 55 | 0.0 | 0.0 | 0.00 | 0.00 | 0.00 | 99 | 1017.8 | |
| 20260507075319 | 55 | 0.0 | 0.0 | 0.00 | 0.00 | 0.00 | 99 | 1017.8 | |
| 20260507074818 | 55 | 0.0 | 0.0 | 0.00 | 0.00 | 0.00 | 99 | 1017.8 | |
| 20260507074316 | 55 | 0.0 | 0.0 | 0.00 | 0.00 | 0.00 | 99 | 1017.9 | |
| 20260507073814 | 55 | 0.0 | 0.0 | 0.00 | 0.00 | 0.00 | 99 | 1018.0 | |
| 20260507073313 | 55 | 0.0 | 0.0 | 0.00 | 0.00 | 0.00 | 99 | 1018.0 | |
| 20260507072811 | 55 | 0.0 | 0.0 | 0.00 | 0.00 | 0.00 | 99 | 1018.1 | |
| 20260507072310 | 55 | 0.0 | 0.0 | 0.00 | 0.00 | 0.00 | 99 | 1018.2 | |
| 20260507071808 | 56 | 0.0 | 0.0 | 0.00 | 0.00 | 0.00 | 99 | 1018.2 | |
| 20260507071306 | 56 | 0.0 | 0.0 | 0.00 | 0.00 | 0.00 | 99 | 1018.3 | |
| 20260507070805 | 56 | 0.0 | 0.0 | 0.00 | 0.00 | 0.00 | 99 | 1018.4 | |
| 20260507070303 | 56 | 0.0 | 0.0 | 0.00 | 0.00 | 0.00 | 99 | 1018.4 | |
| 20260507065801 | 56 | 0.0 | 0.0 | 0.00 | 0.00 | 0.00 | 99 | 1018.5 | |
| 20260507065300 | 56 | 0.0 | 0.0 | 0.00 | 0.00 | 0.00 | 99 | 1018.5 | |
| 20260507064758 | 56 | 0.0 | 0.0 | 0.00 | 0.00 | 0.00 | 99 | 1018.6 | |
| 20260507064257 | 56 | 0.0 | 0.0 | 0.00 | 0.00 | 0.00 | 99 | 1018.6 | |
| 20260507063755 | 56 | 0.0 | 0.0 | 0.00 | 0.00 | 0.00 | 99 | 1018.6 | |
| 20260507063253 | 57 | 0.0 | 0.0 | 0.00 | 0.00 | 0.00 | 99 | 1018.6 | |
| 20260507062752 | 57 | 0.0 | 0.0 | 0.00 | 0.00 | 0.00 | 99 | 1018.7 | |
| 20260507062250 | 56 | 0.0 | 0.0 | 0.00 | 0.00 | 0.00 | 99 | 1018.7 | |
| 20260507061748 | 56 | 0.0 | 0.0 | 0.00 | 0.00 | 0.00 | 99 | 1018.8 | |
| 20260507061247 | 57 | 0.0 | 0.0 | 0.00 | 0.00 | 0.00 | 99 | 1018.8 | |
| 20260507060745 | 57 | 0.0 | 0.0 | 0.00 | 0.00 | 0.00 | 99 | 1018.9 | |
| 20260507060243 | 57 | 0.0 | 0.0 | 0.00 | 0.00 | 0.00 | 99 | 1018.9 | |
| 20260507055741 | 57 | 0.0 | 0.0 | 0.00 | 0.00 | 0.00 | 99 | 1019.0 | |
| 20260507055240 | 57 | 0.0 | 0.0 | 0.00 | 0.00 | 0.00 | 99 | 1019.0 | |
| 20260507054738 | 57 | 0.0 | 0.0 | 0.00 | 0.00 | 0.00 | 99 | 1019.2 | |
| 20260507054236 | 57 | 0.0 | 0.0 | 0.00 | 0.00 | 0.00 | 99 | 1019.3 | |
| 20260507053734 | 57 | 0.0 | 0.0 | 0.00 | 0.00 | 0.00 | 99 | 1019.3 | |
| 20260507053233 | 57 | 0.0 | 0.0 | 0.00 | 0.00 | 0.00 | 99 | 1019.4 | |
| 20260507052731 | 57 | 0.0 | 0.0 | 0.00 | 0.00 | 0.00 | 99 | 1019.5 | |
| 20260507052229 | 57 | 0.0 | 0.0 | 0.00 | 0.00 | 0.00 | 99 | 1019.5 | |
| 20260507051728 | 57 | 0.0 | 0.0 | 0.00 | 0.00 | 0.00 | 99 | 1019.5 | |
| 20260507051226 | 57 | 0.0 | 0.0 | 0.00 | 0.00 | 0.00 | 99 | 1019.6 | |
| 20260507050724 | 57 | 0.0 | 0.0 | 0.00 | 0.00 | 0.00 | 99 | 1019.6 | |
| 20260507050223 | 58 | 0.0 | 0.0 | 0.00 | 0.00 | 0.00 | 99 | 1019.6 | |
| 20260507045721 | 58 | 0.0 | 0.0 | 0.00 | 0.00 | 0.00 | 99 | 1019.7 | |
| 20260507045219 | 58 | 0.0 | 0.0 | 0.00 | 0.00 | 0.00 | 99 | 1019.8 | |
| 20260507044718 | 58 | 0.0 | 0.0 | 0.00 | 0.00 | 0.00 | 99 | 1019.9 | |
| 20260507044216 | 58 | 0.0 | 0.0 | 0.00 | 0.00 | 0.00 | 99 | 1019.8 | |
| 20260507043714 | 58 | 0.0 | 0.0 | 0.00 | 0.00 | 0.00 | 99 | 1019.9 | |
| 20260507043212 | 58 | 0.0 | 0.0 | 0.00 | 0.00 | 0.00 | 99 | 1019.9 | |
| 20260507042710 | 58 | 0.0 | 0.0 | 0.00 | 0.00 | 0.00 | 99 | 1019.9 | |
| 20260507042209 | 59 | 0.0 | 0.0 | 0.00 | 0.00 | 0.00 | 99 | 1020.0 | |
| 20260507041707 | 59 | 0.0 | 0.0 | 0.00 | 0.00 | 0.00 | 99 | 1020.1 | |
| 20260507041205 | 59 | 0.0 | 0.0 | 0.00 | 0.00 | 0.00 | 99 | 1020.1 | |
| 20260507040703 | 59 | 0.0 | 0.0 | 0.00 | 0.00 | 0.00 | 99 | 1020.2 | |
| 20260507040201 | 59 | 0.0 | 0.0 | 0.00 | 0.00 | 0.00 | 99 | 1020.2 | |
| 20260507035700 | 59 | 0.0 | 0.0 | 0.00 | 0.00 | 0.00 | 99 | 1020.3 | |
| 20260507035158 | 59 | 0.0 | 0.0 | 0.00 | 0.00 | 0.00 | 99 | 1020.3 | |
| 20260507034657 | 59 | 0.0 | 0.0 | 0.00 | 0.00 | 0.00 | 99 | 1020.4 | |
| 20260507034155 | 59 | 0.0 | 0.0 | 0.00 | 0.00 | 0.00 | 99 | 1020.4 | |
| 20260507033653 | 59 | 0.0 | 0.0 | 0.00 | 0.00 | 0.00 | 99 | 1020.4 | |
| 20260507033152 | 59 | 0.0 | 0.0 | 0.00 | 0.00 | 0.00 | 99 | 1020.5 | |
| 20260507032650 | 59 | 0.0 | 0.0 | 0.00 | 0.00 | 0.00 | 99 | 1020.5 | |
| 20260507032148 | 59 | 0.0 | 0.0 | 0.00 | 0.00 | 0.00 | 99 | 1020.4 | |
| 20260507031646 | 60 | 0.0 | 0.0 | 0.00 | 0.00 | 0.00 | 99 | 1020.5 | |
| 20260507031144 | 60 | 0.0 | 0.0 | 0.00 | 0.00 | 0.00 | 99 | 1020.6 | |
| 20260507030643 | 60 | 0.0 | 0.0 | 0.00 | 0.00 | 0.00 | 99 | 1020.7 | |
| 20260507030141 | 60 | 0.0 | 0.0 | 0.00 | 0.00 | 0.00 | 99 | 1020.7 | |
| 20260507025639 | 60 | 0.0 | 0.0 | 0.00 | 0.00 | 0.00 | 99 | 1020.7 | |
| 20260507025138 | 60 | 0.0 | 0.0 | 0.00 | 0.00 | 0.00 | 99 | 1020.8 | |
| 20260507024637 | 60 | 0.0 | 0.0 | 0.00 | 0.00 | 0.00 | 99 | 1020.8 | |
| 20260507024135 | 60 | 0.0 | 0.0 | 0.00 | 0.00 | 0.00 | 99 | 1020.8 | |
| 20260507023633 | 60 | 0.0 | 0.0 | 0.00 | 0.00 | 0.00 | 99 | 1020.8 | |
| 20260507023132 | 60 | 0.0 | 0.0 | 0.00 | 0.00 | 0.00 | 99 | 1020.9 | |
| 20260507022630 | 60 | 0.0 | 0.0 | 0.00 | 0.00 | 0.00 | 99 | 1021.0 | |
| 20260507022128 | 60 | 0.0 | 0.0 | 0.00 | 0.00 | 0.00 | 99 | 1021.0 | |
| 20260507021627 | 60 | 0.0 | 0.0 | 0.00 | 0.00 | 0.00 | 99 | 1021.0 | |
| 20260507021125 | 60 | 0.0 | 0.0 | 0.00 | 0.00 | 0.00 | 99 | 1021.1 | |
| 20260507020624 | 61 | 0.0 | 0.0 | 0.00 | 0.00 | 0.00 | 99 | 1021.1 | |
| 20260507020122 | 61 | 0.0 | 0.0 | 0.00 | 0.00 | 0.00 | 99 | 1021.1 | |
| 20260507015620 | 61 | 0.0 | 0.0 | 0.00 | 0.00 | 0.00 | 99 | 1021.2 | |
| 20260507015118 | 61 | 0.0 | 0.0 | 0.00 | 0.00 | 0.00 | 99 | 1021.1 | |
| 20260507014616 | 61 | 0.0 | 0.0 | 0.00 | 0.00 | 0.00 | 99 | 1021.1 | |
| 20260507014113 | 61 | 0.0 | 0.0 | 0.00 | 0.00 | 0.00 | 99 | 1021.1 | |
| 20260507013612 | 61 | 0.0 | 0.0 | 0.00 | 0.00 | 0.00 | 99 | 1021.2 | |
| 20260507013110 | 61 | 0.0 | 0.0 | 0.00 | 0.00 | 0.00 | 99 | 1021.2 | |
| 20260507012608 | 61 | 0.0 | 0.0 | 0.00 | 0.00 | 0.00 | 99 | 1021.2 | |
| 20260507012106 | 62 | 0.0 | 0.0 | 0.00 | 0.00 | 0.00 | 99 | 1021.2 | |
| 20260507011605 | 62 | 0.0 | 0.0 | 0.00 | 0.00 | 0.00 | 99 | 1021.3 | |
| 20260507011103 | 62 | 0.0 | 0.0 | 0.00 | 0.00 | 0.00 | 99 | 1021.4 | |
| 20260507010601 | 62 | 0.0 | 0.0 | 0.00 | 0.00 | 0.00 | 99 | 1021.4 | |
| 20260507010059 | 62 | 0.0 | 0.0 | 0.00 | 0.00 | 0.00 | 99 | 1021.5 | |
| 20260507005557 | 62 | 0.0 | 0.0 | 0.00 | 0.00 | 0.00 | 99 | 1021.6 | |
| 20260507005055 | 62 | 0.0 | 0.0 | 0.00 | 0.00 | 0.00 | 99 | 1021.6 | |
| 20260507004553 | 62 | 0.0 | 0.0 | 0.00 | 0.00 | 0.00 | 99 | 1021.6 | |
| 20260507004050 | 63 | 0.0 | 0.0 | 0.00 | 0.00 | 0.00 | 99 | 1021.6 | |
| 20260507003548 | 63 | 0.0 | 0.0 | 0.00 | 0.00 | 0.00 | 99 | 1021.7 | |
| 20260507003046 | 63 | 0.0 | 0.0 | 0.00 | 0.00 | 0.00 | 99 | 1021.8 | |
| 20260507002544 | 63 | 0.0 | 0.0 | 0.00 | 0.00 | 0.00 | 99 | 1021.8 | |
| 20260507002042 | 63 | 0.0 | 0.0 | 0.00 | 0.00 | 0.00 | 99 | 1021.8 | |
| 20260507001540 | 63 | 0.0 | 0.0 | 0.00 | 0.00 | 0.00 | 99 | 1021.9 | |
| 20260507001038 | 63 | 0.0 | 0.0 | 0.00 | 0.00 | 0.00 | 99 | 1021.8 | |
| 20260507000536 | 63 | 0.0 | 0.0 | 0.00 | 0.00 | 0.00 | 99 | 1021.8 | |
| 20260507000036 | 63 | 0.0 | 0.0 | 0.00 | 0.00 | 0.00 | 99 | 1021.8 | |
| 20260506235532 | 63 | 0.0 | 0.0 | 0.00 | 0.00 | 0.00 | 99 | 1021.8 | |
| 20260506235030 | 64 | 0.0 | 0.0 | 0.00 | 0.00 | 0.00 | 99 | 1021.7 | |
| 20260506234529 | 64 | 0.0 | 0.0 | 0.00 | 0.00 | 0.00 | 99 | 1021.6 | |
| 20260506234026 | 64 | 0.0 | 0.0 | 0.00 | 0.00 | 0.00 | 99 | 1021.5 | |
| 20260506233524 | 64 | 0.0 | 0.0 | 0.00 | 0.00 | 0.00 | 99 | 1021.5 | |
| 20260506233022 | 64 | 0.0 | 0.0 | 0.00 | 0.00 | 0.00 | 99 | 1021.5 | |
| 20260506232520 | 64 | 0.0 | 0.0 | 0.00 | 0.00 | 0.00 | 99 | 1021.4 | |
| 20260506232019 | 65 | 0.0 | 0.0 | 0.00 | 0.00 | 0.00 | 99 | 1021.3 | |
| 20260506231518 | 65 | 0.0 | 0.0 | 0.00 | 0.00 | 0.00 | 99 | 1021.3 | |
| 20260506231016 | 65 | 0.0 | 0.0 | 0.00 | 0.00 | 0.00 | 99 | 1021.3 | |
| 20260506230514 | 65 | 0.0 | 0.0 | 0.00 | 0.00 | 0.00 | 99 | 1021.2 | |
| 20260506230013 | 65 | 0.0 | 0.0 | 0.00 | 0.00 | 0.00 | 99 | 1021.3 | |
| 20260506225511 | 65 | 0.0 | 0.0 | 0.00 | 0.00 | 0.00 | 99 | 1021.3 | |
| 20260506225010 | 66 | 0.0 | 0.0 | 0.00 | 0.00 | 0.00 | 99 | 1021.3 | |
| 20260506224508 | 66 | 0.0 | 0.0 | 0.00 | 0.00 | 0.00 | 99 | 1021.3 | |
| 20260506224006 | 66 | 0.0 | 0.0 | 0.00 | 0.00 | 0.00 | 99 | 1021.2 | |
| 20260506223504 | 66 | 0.0 | 0.0 | 0.00 | 0.00 | 0.00 | 99 | 1021.1 | |
| 20260506223002 | 66 | 0.0 | 0.0 | 0.00 | 0.00 | 0.00 | 99 | 1021.1 | |
| 20260506222500 | 67 | 0.0 | 0.0 | 0.00 | 0.00 | 0.00 | 99 | 1021.1 | |
| 20260506221958 | 67 | 0.0 | 0.0 | 0.00 | 0.00 | 0.00 | 99 | 1021.1 | |
| 20260506221456 | 67 | 0.0 | 0.0 | 0.00 | 0.00 | 0.00 | 99 | 1021.1 | |
| 20260506220954 | 67 | 0.0 | 0.0 | 0.00 | 0.00 | 0.00 | 99 | 1021.1 | |
| 20260506220452 | 68 | 0.0 | 0.0 | 0.00 | 0.00 | 0.00 | 99 | 1021.1 | |
| 20260506215950 | 68 | 0.0 | 0.0 | 0.00 | 0.00 | 0.00 | 99 | 1021.1 | |
| 20260506215448 | 68 | 0.0 | 0.0 | 0.00 | 0.00 | 0.00 | 99 | 1021.0 | |
| 20260506214947 | 68 | 0.0 | 0.0 | 0.00 | 0.00 | 0.00 | 99 | 1021.0 | |
| 20260506214446 | 68 | 0.0 | 0.0 | 0.00 | 0.00 | 0.00 | 99 | 1021.0 | |
| 20260506213943 | 68 | 0.0 | 0.0 | 0.00 | 0.00 | 0.00 | 99 | 1021.0 | |
| 20260506213442 | 68 | 0.0 | 0.0 | 0.00 | 0.00 | 0.00 | 99 | 1021.0 | |
| 20260506212940 | 69 | 0.0 | 0.0 | 0.00 | 0.00 | 0.00 | 99 | 1021.0 | |
| 20260506212438 | 69 | 0.0 | 0.0 | 0.00 | 0.00 | 0.00 | 97 | 1020.9 | |
| 20260506211936 | 69 | 0.0 | 0.0 | 0.00 | 0.00 | 0.00 | 95 | 1020.8 | |
| 20260506211434 | 69 | 0.0 | 0.0 | 0.00 | 0.00 | 0.00 | 92 | 1020.8 | |
| 20260506210932 | 70 | 0.0 | 0.0 | 0.00 | 0.00 | 0.00 | 90 | 1020.6 | |
| 20260506210431 | 70 | 0.0 | 0.0 | 0.00 | 0.00 | 0.00 | 87 | 1020.6 | |
| 20260506205929 | 71 | 0.0 | 0.0 | 0.00 | 0.00 | 0.00 | 86 | 1020.7 | |
| 20260506205427 | 71 | 0.0 | 0.0 | 0.00 | 0.00 | 0.00 | 84 | 1020.7 | |
| 20260506204925 | 72 | 0.0 | 0.0 | 0.00 | 0.00 | 0.00 | 82 | 1020.7 | |
| 20260506204424 | 72 | 0.0 | 0.0 | 0.00 | 0.00 | 0.00 | 79 | 1020.7 | |
| 20260506203922 | 73 | 0.0 | 0.0 | 0.00 | 0.00 | 0.00 | 77 | 1020.7 | |
| 20260506203420 | 73 | 0.0 | 0.0 | 0.00 | 0.00 | 0.00 | 77 | 1020.7 | |
| 20260506202918 | 73 | 0.0 | 0.0 | 0.00 | 0.00 | 0.00 | 75 | 1020.7 | |
| 20260506202417 | 74 | 0.0 | 0.0 | 0.00 | 0.00 | 0.00 | 73 | 1020.6 | |
| 20260506201915 | 76 | 0.0 | 0.0 | 0.00 | 0.00 | 0.00 | 70 | 1020.6 | |
| 20260506201413 | 75 | 0.0 | 0.0 | 0.00 | 0.00 | 0.00 | 71 | 1020.6 | |
| 20260506200911 | 76 | 0.0 | 0.0 | 0.00 | 0.00 | 0.00 | 69 | 1020.7 | |
| 20260506200409 | 76 | 0.0 | 0.0 | 0.00 | 0.00 | 0.00 | 69 | 1020.8 | |
| 20260506195908 | 76 | 0.0 | 0.0 | 0.00 | 0.00 | 0.00 | 69 | 1020.8 | |
| 20260506195406 | 77 | 0.0 | 0.0 | 0.00 | 0.00 | 0.00 | 65 | 1020.9 | |
| 20260506194904 | 79 | 0.0 | 0.0 | 0.00 | 0.00 | 0.00 | 63 | 1020.8 | |
| 20260506194402 | 77 | 0.0 | 0.0 | 0.00 | 0.00 | 0.00 | 68 | 1020.9 | |
| 20260506193901 | 77 | 0.0 | 0.0 | 0.00 | 0.00 | 0.00 | 66 | 1020.9 | |
| 20260506193359 | 78 | 0.0 | 0.0 | 0.00 | 0.00 | 0.00 | 66 | 1020.9 | |
| 20260506192858 | 78 | 0.0 | 0.0 | 0.00 | 0.00 | 0.00 | 64 | 1020.8 | |
| 20260506192356 | 78 | 0.0 | 0.0 | 0.00 | 0.00 | 0.00 | 63 | 1020.8 | |
| 20260506191855 | 79 | 0.0 | 0.0 | 0.00 | 0.00 | 0.00 | 62 | 1020.9 | |
| 20260506191353 | 80 | 0.0 | 0.0 | 0.00 | 0.00 | 0.00 | 60 | 1020.9 | |
| 20260506190851 | 82 | 0.0 | 0.0 | 0.00 | 0.00 | 0.00 | 55 | 1020.9 | |
| 20260506190349 | 85 | 0.0 | 0.0 | 0.00 | 0.00 | 0.00 | 50 | 1021.0 | |
| 20260506185847 | 85 | 0.0 | 0.0 | 0.00 | 0.00 | 0.00 | 50 | 1021.0 | |
| 20260506185345 | 84 | 0.0 | 0.0 | 0.00 | 0.00 | 0.00 | 51 | 1021.0 | |
| 20260506184844 | 84 | 0.0 | 0.0 | 0.00 | 0.00 | 0.00 | 51 | 1021.0 | |
| 20260506184342 | 88 | 0.0 | 0.0 | 0.00 | 0.00 | 0.00 | 46 | 1021.0 | |
| 20260506183840 | 89 | 0.0 | 0.0 | 0.00 | 0.00 | 0.00 | 45 | 1020.9 | |
| 20260506183338 | 87 | 0.0 | 0.0 | 0.00 | 0.00 | 0.00 | 48 | 1020.9 | |
| 20260506182837 | 86 | 0.0 | 0.0 | 0.00 | 0.00 | 0.00 | 51 | 1021.0 | |
| 20260506182335 | 82 | 0.0 | 0.0 | 0.00 | 0.00 | 0.00 | 58 | 1021.0 | |
| 20260506181833 | 82 | 0.0 | 0.0 | 0.00 | 0.00 | 0.00 | 56 | 1021.1 | |
| 20260506181332 | 83 | 0.0 | 0.0 | 0.00 | 0.00 | 0.00 | 51 | 1021.1 | |
| 20260506180830 | 83 | 0.0 | 0.0 | 0.00 | 0.00 | 0.00 | 51 | 1021.2 | |
| 20260506180329 | 80 | 0.0 | 0.0 | 0.00 | 0.00 | 0.00 | 54 | 1021.3 | |
| 20260506175827 | 80 | 0.0 | 0.0 | 0.00 | 0.00 | 0.00 | 54 | 1021.3 | |
| 20260506175325 | 80 | 0.0 | 0.0 | 0.00 | 0.00 | 0.00 | 54 | 1021.2 | |
| 20260506174824 | 80 | 0.0 | 0.0 | 0.00 | 0.00 | 0.00 | 54 | 1021.2 | |
| 20260506174322 | 80 | 0.0 | 0.0 | 0.00 | 0.00 | 0.00 | 52 | 1021.3 | |
| 20260506173820 | 81 | 0.0 | 0.0 | 0.00 | 0.00 | 0.00 | 51 | 1021.4 | |
| 20260506173318 | 83 | 0.0 | 0.0 | 0.00 | 0.00 | 0.00 | 48 | 1021.5 | |
| 20260506172816 | 83 | 0.0 | 0.0 | 0.00 | 0.00 | 0.00 | 48 | 1021.5 | |
| 20260506172314 | 84 | 0.0 | 0.0 | 0.00 | 0.00 | 0.00 | 48 | 1021.5 | |
| 20260506171812 | 87 | 0.0 | 0.0 | 0.00 | 0.00 | 0.00 | 43 | 1021.5 | |
| 20260506171310 | 88 | 0.0 | 0.0 | 0.00 | 0.00 | 0.00 | 42 | 1021.5 | |
| 20260506170809 | 85 | 0.0 | 0.0 | 0.00 | 0.00 | 0.00 | 47 | 1021.6 | |
| 20260506170307 | 82 | 0.0 | 0.0 | 0.00 | 0.00 | 0.00 | 50 | 1021.7 | |
| 20260506165805 | 84 | 0.0 | 0.0 | 0.00 | 0.00 | 0.00 | 47 | 1021.8 | |
| 20260506165305 | 86 | 0.0 | 0.0 | 0.00 | 0.00 | 0.00 | 45 | 1021.9 | |
| 20260506164802 | 87 | 0.0 | 0.0 | 0.00 | 0.00 | 0.00 | 43 | 1021.9 | |
| 20260506164300 | 85 | 0.0 | 0.0 | 0.00 | 0.00 | 0.00 | 46 | 1022.1 | |
| 20260506163758 | 85 | 0.0 | 0.0 | 0.00 | 0.00 | 0.00 | 46 | 1022.1 | |
| 20260506163256 | 84 | 0.0 | 0.0 | 0.00 | 0.00 | 0.00 | 47 | 1022.2 | |
| 20260506162755 | 84 | 0.0 | 0.0 | 0.00 | 0.00 | 0.00 | 46 | 1022.2 | |
| 20260506162253 | 87 | 0.0 | 0.0 | 0.00 | 0.00 | 0.00 | 43 | 1022.2 | |
| 20260506161751 | 86 | 0.0 | 0.0 | 0.00 | 0.00 | 0.00 | 44 | 1022.3 | |
| 20260506161249 | 86 | 0.0 | 0.0 | 0.00 | 0.00 | 0.00 | 43 | 1022.3 | |
| 20260506160748 | 86 | 0.0 | 0.0 | 0.00 | 0.00 | 0.00 | 44 | 1022.4 | |
| 20260506160246 | 86 | 0.0 | 0.0 | 0.00 | 0.00 | 0.00 | 44 | 1022.6 | |
| 20260506155744 | 86 | 0.0 | 0.0 | 0.00 | 0.00 | 0.00 | 44 | 1022.6 | |
| 20260506155242 | 86 | 0.0 | 0.0 | 0.00 | 0.00 | 0.00 | 43 | 1022.8 | |
| 20260506154741 | 83 | 0.0 | 0.0 | 0.00 | 0.00 | 0.00 | 46 | 1022.9 | |
| 20260506154239 | 84 | 0.0 | 0.0 | 0.00 | 0.00 | 0.00 | 45 | 1023.1 | |
| 20260506153737 | 86 | 0.0 | 0.0 | 0.00 | 0.00 | 0.00 | 46 | 1023.2 | |
| 20260506153235 | 86 | 0.0 | 0.0 | 0.00 | 0.00 | 0.00 | 47 | 1023.3 | |
| 20260506152734 | 83 | 0.0 | 0.0 | 0.00 | 0.00 | 0.00 | 50 | 1023.5 | |
| 20260506152232 | 84 | 0.0 | 0.0 | 0.00 | 0.00 | 0.00 | 49 | 1023.5 | |
| 20260506151730 | 84 | 0.0 | 0.0 | 0.00 | 0.00 | 0.00 | 49 | 1023.6 | |
| 20260506151228 | 84 | 0.0 | 0.0 | 0.00 | 0.00 | 0.00 | 48 | 1023.8 | |
| 20260506150726 | 83 | 0.0 | 0.0 | 0.00 | 0.00 | 0.00 | 48 | 1023.9 | |
| 20260506150224 | 85 | 0.0 | 0.0 | 0.00 | 0.00 | 0.00 | 48 | 1023.9 | |
| 20260506145722 | 83 | 0.0 | 0.0 | 0.00 | 0.00 | 0.00 | 52 | 1023.9 | |
| 20260506145220 | 83 | 0.0 | 0.0 | 0.00 | 0.00 | 0.00 | 53 | 1024.0 | |
| 20260506144718 | 83 | 0.0 | 0.0 | 0.00 | 0.00 | 0.00 | 54 | 1024.1 | |
| 20260506144216 | 83 | 0.0 | 0.0 | 0.00 | 0.00 | 0.00 | 53 | 1024.1 | |
| 20260506143714 | 83 | 0.0 | 0.0 | 0.00 | 0.00 | 0.00 | 54 | 1024.1 | |
| 20260506143212 | 82 | 0.0 | 0.0 | 0.00 | 0.00 | 0.00 | 55 | 1024.2 | |
| 20260506142711 | 81 | 0.0 | 0.0 | 0.00 | 0.00 | 0.00 | 57 | 1024.3 | |
| 20260506142209 | 80 | 0.0 | 0.0 | 0.00 | 0.00 | 0.00 | 56 | 1024.3 |